Reflectivity
-20 -20 -20 -20 -20 -20 -20 -20 -20 -20 -20 -20 -20 -20 -20 -20 -6 -20 -20 -20 -20 -20 -20 -20 -20 -20 -20 -20 -20 -20 -20 -20 -20 -20 -20 -20 -20 -20 -20 -20 -20 -20 -20 -20 4
-20 -20 -20 -20 -20 -20 -20 -20 -20 -20 -20 -20 -20 -20 -20 -18 -20 -20 -20 -20 -20 -20 -20 -20 -20 -20 -20 -20 -20 -20 -20 -20 -20 -20 -20 -20 -20 -20 -20 -20 -20 -20 -20 -20 -20
-20 -20 -20 -20 -20 -20 -16 -15 -20 -20 -20 -20 -20 -20 -20 -7 -20 -20 -20 -20 -20 -20 -20 -20 -20 -20 -20 -20 -20 -20 -20 -20 -20 -20 -20 -20 -20 -20 -20 -20 -20 -20 -20 -20 -20
-20 -20 -20 -20 -20 -20 -1 2 -13 -20 -19 -20 -20 -20 -20 -20 -20 -20 -20 -20 -20 -20 -20 -20 -20 -20 -20 -20 -20 -20 -20 -20 -20 -20 -20 -20 -20 -20 -20 -20 -20 -20 -20 -20 -20
-20 -20 -20 -20 -20 -20 -20 -7 2 -20 -20 -20 -20 -20 -20 -20 -20 -20 -20 -20 -20 -20 -20 -20 -20 -20 -20 -20 -20 -20 -20 -20 -20 -20 -20 -20 -20 -20 -20 -20 -20 -20 -20 -20 -20
-20 -20 -20 -20 -20 -20 -20 -19 -13 12 -20 -20 -20 -11 -20 -20 -20 -15 -20 -20 -20 -20 -20 -20 -20 -20 -20 -20 -20 -20 -20 -20 -20 -20 -20 -20 -20 -20 -20 -20 -20 -20 -20 -20 -20
-20 -20 -20 -20 -20 -20 -20 -20 -20 3 10 -12 -20 -3 -20 9 -20 -20 -20 -20 -20 -20 -20 -20 -20 -20 -20 -20 -20 -20 -20 -20 -20 -20 -20 -20 -20 -20 -20 -20 -20 -20 -20 -4 -8
-20 -20 -20 -20 -20 -20 -20 -20 -20 -20 6 -9 -19 -20 -15 18 -20 -18 -20 -20 -20 -20 -20 -20 -20 -20 -20 -20 -20 -20 -20 -20 -20 -20 -20 -20 -20 -20 -20 -20 -20 -20 -20 -20 -20
-7 -20 -20 -20 -12 -19 -20 -17 -20 -20 11 16 4 -20 -10 13 -7 -20 -20 -20 -20 -20 -20 -20 -20 -20 -20 -20 -20 -20 -20 -20 -20 -20 -20 -20 -20 -20 -20 -20 -20 -20 -20 -20 -20
-20 -9 -20 -20 -20 -17 -20 -20 -20 -15 22 17 5 -17 6 16 7 -4 -20 -20 -20 -20 -20 -20 -20 -20 -20 -20 -20 -20 -20 -20 -20 -20 -20 -20 -20 -20 -20 -20 -20 -20 -20 -20 -20
-20 -20 -20 -20 -20 -20 -20 -20 -20 -20 3 -10 -20 -20 7 10 -0 -15 -20 -20 -20 -20 -20 -20 -20 -20 7 -20 -20 -20 -20 -20 -20 -20 -20 -20 -20 -20 -20 -20 -20 -20 -20 -20 -20
-20 -20 -20 -20 -4 -20 -20 -20 -20 -20 -18 -20 -20 -20 13 16 -11 -19 -20 -20 -20 -20 -20 -20 -20 -20 3 -20 -20 -20 -20 -20 -20 -20 -20 -20 -20 -20 -20 -20 -20 -20 -20 -20 -20
-20 -20 -20 -20 -20 -20 -20 -20 -16 -10 -8 -20 -20 -20 15 12 -16 -17 -19 -20 -20 -20 -20 -20 -20 -20 -20 -20 -20 -20 -20 -20 -20 -20 -20 -20 -20 -20 -20 -20 -20 -20 -20 -20 -20
-20 -20 -20 1 -20 -20 -20 -20 -16 -19 0 -16 -20 -20 -4 12 -11 5 4 -20 -20 -20 -20 -20 -20 -20 -20 -20 -20 -20 -20 -20 -20 -20 -20 -20 -20 -20 -20 -20 -20 -20 -20 -20 -20
-20 -20 3 11 -20 -20 -20 -20 -20 -20 -20 -7 -6 -20 -20 -20 -20 16 11 -3 -20 -20 -20 -20 -20 -20 -20 -20 -20 -20 -20 -20 -20 -20 -20 -20 -20 -20 -20 -20 -20 -20 -20 -20 -20
-20 -11 -20 -12 -20 -20 -20 -20 -15 7 -18 -18 -20 -20 -20 11 -13 5 8 -12 -19 -20 -20 -20 -20 -20 -20 -20 -20 -20 -20 -20 -20 -20 -20 -20 -20 -20 -20 -20 -20 -20 -20 -20 -20
-20 -6 12 -4 -20 -20 -20 -20 -7 7 -20 -20 -16 -17 -20 -20 -12 -18 -3 -5 -20 -20 -20 -20 -20 -20 -20 -20 -20 -20 -20 -20 -20 -20 -20 -20 -20 -20 -20 -20 -20 -20 -20 -20 -20
-20 17 -20 4 -20 -20 -20 -20 4 -20 -20 -20 -20 -19 -8 -20 -5 7 -20 -20 -19 -20 -20 -20 -19 -10 -20 -20 -20 -20 -20 -20 -20 -20 -20 -20 -20 -20 -20 -20 -20 -20 -20 -20 -20
-15 -20 2 -20 -20 -20 -20 -18 -19 -19 -20 -20 -20 -20 -20 -17 -20 -18 -20 -20 -20 -20 -3 -19 -17 -18 -14 -6 -20 -20 -20 -20 -20 -20 -20 -20 -20 -20 -20 -20 -20 -20 -20 -20 -20
-8 -8 -15 -12 10 24 8 -20 -5 6 -20 -20 -20 -20 -20 -20 -20 -20 -20 -20 -20 -20 -20 -20 -15 3 -12 -16 -20 -20 -20 -20 -20 -20 -20 -20 -20 -20 -20 -20 -20 -20 -20 -20 -20
-6 19 -7 -3 18 30 10 -20 -20 -20 -20 -20 -20 -20 -20 -16 -12 -20 -20 -20 -20 -19 -20 -20 -20 -12 -20 -20 -20 -20 -20 -20 -20 -20 -20 -20 -20 -20 -20 -20 -20 -20 -20 -20 -20
20 18 -4 14 29 33 2 -16 -20 -20 -20 -20 -20 -20 -20 -20 -20 -14 -20 -20 -20 -20 -20 -20 -20 -20 -20 -20 -20 -20 -20 -20 -20 -20 -20 -20 -20 -20 -20 -20 -20 -20 -20 -20 -20
21 17 18 18 9 14 12 -5 -20 -20 -20 -20 -20 -20 -20 -20 -20 -19 -20 -20 -20 -20 -20 -20 -20 -20 -13 -20 -20 -20 -20 -20 -20 -20 -20 -20 -20 -20 -20 -20 -20 -20 -20 -20 -20
31 18 28 31 10 3 -2 -20 -20 -20 -20 -20 -20 -20 -20 -20 -20 -20 -19 -20 -18 -20 -20 -20 -20 -20 -20 -20 -20 -20 -20 -20 -20 -20 -20 -20 -20 -20 -19 -20 -20 -20 -20 -20 -20
35 20 11 5 21 10 -11 -10 -20 -20 -20 -20 -20 -20 -20 -20 -20 -20 -20 -20 -20 3 -20 -20 -20 -20 -20 -20 -20 -20 -20 -20 -20 -20 -20 -20 -20 -20 -16 -14 -20 -20 -20 -20 -20
31 27 12 31 -15 24 6 -5 -3 -20 -9 -20 -20 -20 -20 -20 -20 -20 -20 -20 -20 -20 -20 -19 -20 -20 -20 -10 -20 -20 -20 -20 -20 -20 -20 -20 -20 -20 -20 -20 -20 -20 -20 -20 -20
27 20 23 11 16 5 15 -12 -16 3 -16 -20 -20 -20 -20 -20 -20 -20 -20 -20 -20 -20 -20 -20 -20 -20 -20 -19 -20 -20 -20 -20 -20 -20 -20 -20 -20 -20 -20 -20 -20 -20 -20 -20 -20
Wind_Speed
11 9 10 14 13 13 14 13 15 18 20 21 21 22 24 22 26 5 7 12 7 6 7 8 4 4 3 3 3 4 5 2 5 4 6 3 4 3 0 3 2 2 1 1 3
16 16 14 14 13 13 12 13 12 16 18 20 21 21 22 22 15 11 12 6 6 15 6 7 5 6 2 3 1 5 4 9 7 6 8 6 8 6 3 3 5 1 1 2 3
16 17 18 16 14 15 13 15 14 16 17 19 20 21 22 21 6 8 7 11 10 10 4 5 7 5 4 3 5 6 6 5 6 11 9 5 4 6 3 5 7 5 7 6 3
15 16 17 18 17 16 15 13 16 17 18 19 21 22 24 2 5 6 6 7 10 7 5 6 5 4 4 5 5 3 7 5 7 4 3 5 5 3 7 4 3 6 5 5 6
14 16 16 18 17 17 14 15 14 18 17 19 20 20 9 4 11 5 4 4 6 7 6 6 5 5 5 4 5 5 4 4 7 9 5 5 5 4 7 5 4 2 5 4 6
14 13 16 18 18 17 16 16 16 17 17 17 17 15 2 8 3 5 8 4 4 5 7 6 7 7 4 4 5 5 4 8 6 4 5 4 1 4 5 7 6 4 2 1 2
14 13 15 17 18 18 18 18 19 18 19 17 14 6 6 21 3 7 5 4 3 3 5 4 4 4 1 2 4 2 4 6 5 3 4 5 4 11 6 8 8 6 6 5 3
16 14 14 16 17 19 21 26 27 21 22 18 11 4 11 6 2 6 3 6 5 6 2 2 3 5 4 3 4 1 4 3 5 5 1 8 12 6 8 12 9 7 6 6 5
14 15 15 16 16 17 19 24 27 27 17 10 4 5 13 5 4 10 8 7 7 4 4 2 5 5 3 3 4 6 4 4 7 4 4 3 9 3 4 5 7 7 9 7 7
14 15 15 16 16 15 18 23 22 6 4 7 3 2 8 5 3 2 5 3 3 7 3 3 3 4 3 4 8 5 4 4 6 2 2 4 14 10 7 7 8 8 8 8 8
14 15 16 15 15 15 13 7 7 3 3 7 6 6 6 6 5 2 4 4 3 5 7 5 5 13 9 7 5 5 4 4 6 4 3 8 10 17 5 6 9 8 8 8 8
14 15 15 14 12 12 4 3 4 3 15 15 21 19 24 11 9 9 7 5 5 7 6 3 17 6 8 7 6 4 3 6 9 7 7 8 11 6 6 8 11 10 9 9 6
14 14 14 12 10 4 2 3 7 8 7 10 9 11 11 15 16 20 5 6 5 6 11 10 3 13 10 7 7 5 6 5 8 6 5 3 9 5 4 4 4 8 7 7 11
15 13 12 9 4 3 4 5 9 5 6 9 6 8 7 9 8 17 17 8 4 13 7 8 6 5 4 10 9 9 11 8 6 2 4 3 7 7 4 7 6 8 10 11 10
15 13 11 2 2 3 4 10 10 2 6 2 4 2 6 12 4 6 10 2 10 7 8 8 8 10 6 6 7 9 8 8 5 5 1 3 2 8 2 7 10 10 14 13 12
14 13 11 2 1 4 6 9 1 2 9 8 0 3 4 5 4 5 5 2 5 5 2 8 3 8 12 7 11 4 3 3 2 3 3 7 7 6 5 9 7 6 11 13 13
14 14 8 3 1 1 4 4 2 7 5 6 5 2 8 4 5 4 7 9 9 8 7 2 5 2 3 5 3 5 5 1 2 1 6 5 5 9 8 10 10 10 9 12 11
12 13 6 4 4 2 3 1 10 2 6 7 6 15 4 5 6 7 7 6 7 5 5 8 4 11 6 8 7 7 8 7 7 4 5 1 6 8 9 10 9 9 7 8 11
12 3 3 4 7 4 3 5 3 1 4 9 11 5 6 6 4 1 6 8 8 6 6 6 6 2 5 8 13 5 5 6 6 1 2 5 7 9 8 8 9 9 6 9 12
0 3 6 10 9 4 4 7 5 2 5 5 4 6 6 9 8 6 2 5 3 9 3 6 1 4 2 5 3 7 7 4 2 5 5 3 3 6 5 11 8 8 8 10 9
1 5 2 13 6 4 7 6 5 16 8 4 3 5 4 5 5 7 7 6 13 5 3 3 3 4 3 4 8 4 3 1 4 5 5 2 6 9 10 5 6 8 7 9 9
3 7 5 9 7 3 7 6 4 12 5 6 3 4 3 6 6 6 6 5 14 7 4 2 3 6 14 7 2 5 7 8 5 5 4 4 7 5 9 7 5 7 8 7 9
4 4 5 8 10 7 4 6 6 3 4 2 3 4 4 2 2 3 5 4 14 10 2 3 2 2 6 3 4 2 6 6 3 2 6 5 6 2 7 5 7 8 8 8 5
2 4 4 6 2 14 10 10 8 7 11 3 3 2 2 4 2 4 7 5 10 6 7 5 3 4 3 0 2 7 7 5 7 5 3 6 4 6 6 7 6 7 9 9 8
5 5 4 7 9 9 15 10 12 9 6 4 3 6 1 4 6 5 5 5 6 6 5 3 3 2 2 7 4 5 9 8 6 7 9 5 9 9 12 11 12 10 7 7 9
4 4 5 1 10 14 15 14 16 14 10 5 6 3 4 7 8 5 4 3 5 6 6 3 1 3 3 3 5 3 6 8 8 7 7 7 9 9 10 6 7 11 9 10 10
6 4 4 9 7 14 13 12 18 11 6 14 7 8 8 14 9 11 11 10 8 4 5 4 4 2 2 4 7 4 1 3 7 8 6 8 8 9 8 8 8 13 10 12 11
Wind_Direction
327 326 328 329 330 329 324 332 331 333 336 333 335 331 325 323 321 280 236 224 182 172 151 126 96 120 78 142 124 141 68 217 240 180 249 194 190 171 100 262 212 182 358 192 135
337 335 333 333 326 315 318 319 322 324 332 330 331 329 325 325 316 256 246 223 171 141 120 139 141 138 117 165 141 108 137 218 210 205 246 209 194 171 172 209 254 257 191 127 81
333 331 327 325 330 324 323 314 315 319 326 325 329 330 326 325 306 253 328 195 179 158 128 145 115 134 174 161 189 172 207 217 248 236 245 232 208 167 164 239 235 216 186 188 162
331 330 328 327 328 324 329 324 320 319 322 322 327 332 325 319 289 360 32 147 159 157 126 118 116 134 177 197 188 178 238 214 281 235 167 198 145 205 187 189 230 241 140 157 153
320 319 324 324 325 324 322 317 322 316 320 318 321 336 340 337 253 321 347 120 128 142 162 149 137 158 198 201 156 208 260 203 242 283 231 156 211 203 244 158 118 112 144 145 107
314 319 316 319 321 320 316 314 316 315 311 307 314 335 285 275 247 33 14 294 212 168 165 153 177 194 218 216 179 208 240 278 263 234 223 192 21 64 243 149 147 157 216 196 147
305 310 312 313 312 318 318 312 318 313 301 297 301 310 255 248 265 307 310 267 294 206 153 174 164 121 171 238 241 239 282 308 271 204 230 114 274 232 178 158 169 178 191 214 205
306 307 305 303 310 317 321 322 318 307 295 282 281 235 252 250 227 271 164 268 242 271 253 232 169 157 182 243 14 313 60 3 296 129 313 137 277 288 171 160 184 187 197 198 188
300 302 304 306 313 316 318 314 302 304 298 252 181 198 260 285 233 241 176 227 170 170 220 120 135 174 123 138 19 3 237 243 311 233 112 185 270 333 128 188 186 187 207 209 206
299 303 303 303 307 316 318 299 295 295 64 130 187 247 252 257 240 214 181 225 186 121 131 147 135 135 95 128 211 197 225 234 246 232 67 197 262 266 188 198 220 204 196 208 194
309 306 304 305 309 324 333 333 13 298 7 241 217 260 311 334 305 156 144 139 276 135 178 203 154 199 179 177 157 151 183 234 253 220 340 259 261 273 205 212 232 220 208 210 200
313 307 304 307 316 328 340 6 68 305 298 258 250 253 255 296 317 276 160 168 175 192 151 126 230 166 160 176 166 154 239 265 296 284 178 286 275 261 189 231 220 216 216 207 163
308 303 304 312 327 11 316 275 338 335 265 274 221 235 227 176 223 259 190 175 174 163 197 203 249 162 172 161 166 203 185 225 229 351 255 317 307 280 262 246 210 220 207 194 190
303 301 301 315 357 318 287 318 320 292 298 275 232 257 176 142 238 221 190 163 191 190 161 228 234 150 149 199 159 231 194 214 245 81 247 106 271 303 282 271 242 223 216 214 190
305 298 300 256 298 332 304 319 313 229 324 251 191 186 167 172 320 222 175 118 161 180 153 226 176 193 177 208 154 234 161 189 213 206 329 221 283 265 32 282 262 237 224 215 197
301 300 298 9 210 253 315 299 249 218 250 311 221 111 165 250 291 45 170 157 154 132 159 212 185 162 217 180 182 125 168 157 104 138 240 230 178 264 228 220 257 250 219 215 196
292 294 291 168 225 186 327 350 249 230 316 298 355 326 248 225 219 172 170 191 161 162 185 249 200 234 196 116 171 123 101 344 346 348 228 216 162 245 262 249 231 257 246 218 202
288 292 264 204 186 60 23 40 231 183 270 335 329 302 233 152 239 176 118 190 252 121 132 185 255 178 193 177 176 188 157 158 196 193 245 115 227 248 239 263 254 241 243 197 199
305 274 245 192 147 127 111 219 245 254 331 337 319 332 343 343 347 165 170 190 202 197 148 168 245 224 199 183 160 202 167 192 95 26 62 230 285 305 282 274 286 255 183 210 205
248 270 229 164 155 138 201 216 249 306 9 340 340 14 353 346 20 18 86 345 267 202 186 197 226 208 252 107 212 165 167 102 12 174 222 255 262 230 301 278 307 302 212 224 214
249 251 204 150 154 181 216 193 246 274 299 318 320 306 339 6 335 345 356 43 357 352 195 157 122 271 79 159 176 154 204 95 154 146 189 203 255 216 227 260 286 298 290 228 208
240 238 166 143 195 209 207 191 227 271 299 253 253 277 300 8 355 343 12 44 348 326 55 332 186 229 242 243 223 165 200 176 178 234 226 178 246 232 219 216 234 268 261 231 216
231 228 192 192 212 197 138 198 213 278 239 288 306 343 3 335 314 301 347 328 2 6 18 342 24 37 341 349 14 197 213 193 135 103 208 209 263 304 278 262 234 243 270 287 265
199 216 198 219 202 206 184 190 200 217 251 316 300 342 308 360 357 306 329 311 344 333 354 358 87 117 201 231 205 279 306 264 198 190 217 228 236 280 262 234 250 236 242 251 277
196 222 215 194 214 202 183 186 200 209 206 173 241 205 24 334 353 309 291 332 331 310 22 38 156 116 219 258 288 289 291 288 222 238 238 243 206 231 233 231 230 228 254 259 254
197 184 197 279 180 189 193 208 202 207 207 189 225 288 206 215 192 260 279 40 279 339 7 11 188 128 242 267 285 327 288 313 286 236 238 237 253 233 252 238 268 255 249 247 240
196 211 251 187 186 188 197 190 209 195 228 226 202 224 243 251 242 248 253 252 260 321 328 279 175 146 245 334 319 344 141 312 296 295 288 279 261 244 264 241 243 257 245 238 236